Content
SEND FEEDBACK

Daily
Averages
Monthly
Summary
Brazil

TERESINA, PIAUI


Home > South America > Brazil > Piaui
Elevation: 328 feet     Latitude: 05 03S     Longitude: 042 48W

WEATHER
 
SELECT A DAY
Number of Records: 163,653;   Date Range: 6/30/96 - 7/23/14
 
SHARE

PRINT THIS DATA

[ ← Previous Day ]
WEATHER ALMANAC - JANUARY 17, 2013
[ Next Day → ]
[ °C ]   °F
Weather ElementAverageHighLow
Temperature81.6 °F91.4 °F (3:00 pm)77 °F (6:00 am)
Dewpoint76 °F78 °F (3:00 am)71.6 °F (3:00 pm)
Humidity83.7 %100 % (6:00 am)45 % (3:00 pm)
Barometer29.84 in29.93 in (9:00 am)29.77 in (3:00 pm)
Wind Speed1.1 mph4.6 mph (1:00 am)
Weather ElementAverage
Visibility6.8 mi
Wind DirectionESE (115.5 °)

Weather ElementTotal
Precipitation---
Cooling Degree Days19.2 (Base 65)
Growing Degree Days34.2 (Base 50)
Averaged from 30 records on January 17, 2013
WEATHER CONDITIONS BREAKOUT
WIND DIRECTION BREAKOUT
WEATHER BY HOUR - JANUARY 17, 2013
[ °C ]   °F
Local TimeTemperatureDewpointHumidityBarometerVisibilityWind DirectionWind SpeedGust SpeedPrecipitationEventsConditions
1:00 AM80.6 °F77.0 °F89 %29.80 in6.2 miNW (320°)4.6 mphMostly Cloudy
2:00 AM80.6 °F77.0 °F89 %29.80 in6.2 miCalmMostly Cloudy
3:00 AM80.0 °F78.0 °F90 %29.79 in12.0 miNW (320°)2.3 mphPartly Cloudy
3:00 AM80.6 °F77.0 °F89 %29.80 in6.2 miNW (320°)2.3 mphMostly Cloudy
4:00 AM80.6 °F77.0 °F89 %29.80 in6.2 miCalmMostly Cloudy
4:10 AM78.8 °F77.0 °F94 %29.83 in2.5 miCalmRainRain
4:25 AM78.8 °F77.0 °F94 %29.80 in3.7 miSE (130°)3.5 mphRainLight Rain
5:00 AM78.8 °F77.0 °F94 %29.83 in6.2 miCalmRainLight Rain
6:00 AM77.0 °F77.0 °F100 %29.86 in6.2 miCalmRainLight Rain
6:27 AM77.0 °F77.0 °F100 %29.86 in6.2 miCalmOvercast
7:00 AM77.0 °F75.2 °F94 %29.86 in6.2 miCalmOvercast
8:00 AM77.0 °F77.0 °F100 %29.92 in6.2 miESE (110°)2.3 mphOvercast
9:00 AM77.0 °F75.0 °F93 %29.93 in12.0 miENE (60°)2.3 mphPartly Cloudy
9:00 AM77.0 °F75.2 °F94 %29.92 in6.2 miENE (60°)2.3 mphScattered Clouds
10:00 AM77.0 °F75.2 °F94 %29.92 in6.2 miCalmScattered Clouds
11:00 AM80.6 °F75.2 °F84 %29.89 in6.2 miSSW (200°)2.3 mphMostly Cloudy
12:00 PM80.6 °F75.2 °F84 %29.86 in6.2 miCalmMostly Cloudy
1:00 PM86.0 °F75.2 °F70 %29.86 in6.2 miCalmMostly Cloudy
2:00 PM87.8 °F73.4 °F62 %29.80 in6.2 miCalmScattered Clouds
3:00 PM91.0 °F72.0 °F45 %29.78 in12.0 miCalmScattered Clouds
3:00 PM91.4 °F71.6 °F52 %29.77 in6.2 miCalmPartly Cloudy
4:00 PM87.8 °F75.2 °F66 %29.80 in6.2 miWNW (300°)3.5 mphMostly Cloudy
5:00 PM86.0 °F75.2 °F70 %29.77 in6.2 miCalmMostly Cloudy
6:00 PM86.0 °F77.0 °F74 %29.77 in6.2 miCalmMostly Cloudy
7:00 PM84.2 °F77.0 °F79 %29.80 in6.2 miWest (280°)1.2 mphMostly Cloudy
8:00 PM82.4 °F77.0 °F84 %29.83 in6.2 miWSW (240°)1.2 mphScattered Clouds
9:00 PM82.0 °F77.0 °F82 %29.85 in12.0 miSouth (180°)1.2 mphPartly Cloudy
9:00 PM82.4 °F77.0 °F84 %29.86 in6.2 miSouth (180°)1.2 mphScattered Clouds
10:00 PM80.6 °F75.2 °F84 %29.86 in6.2 miWNW (300°)1.2 mphScattered Clouds
11:00 PM80.6 °F77.0 °F89 %29.89 in6.2 miNorth (350°)2.3 mphMostly Cloudy
Hourly data recorded from SBTE, located miles away from Teresina, Piaui







STORIES FROM OUR PARTNERS